Location: Bay Ridge
(40.6340°N, 74.0146°W)
Time: 05:51:34
(UTC+00:00)

Okean O Rocket - Pass Details

Date: 15 November 2019
Orbit: 622 x 645 km, 98.2° (Epoch: 12 December)

Event Time Altitude Azimuth Distance (km) Brightness Sun altitude
Rises 09:50:57 0° 23° (NNE) 2,911 5.2 -21.2°
Reaches altitude 10° 09:53:21 10° 34° (NNE) 1,999 4.5 -20.7°
Maximum altitude 09:57:14 32° 97° (E) 1,081 3.5 -20.0°
Drops below altitude 10° 10:01:06 10° 161° (SSE) 1,987 4.5 -19.2°
Sets 10:03:28 0° 171° (S) 2,890 5.2 -18.8°
